Location: Castillon
(43.0896°N, 0.2156°E)
Time: 17:14:17
(UTC+00:00)

Spot 2 Rocket - Pass Details

Date: 16 June 2021
Orbit: 757 x 772 km, 98.5° (Epoch: 03 August)

Event Time Altitude Azimuth Distance (km) Brightness Sun altitude
Exits shadow 21:17:53 18° 164° (SSE) 1,798 4.9 -13.8°
Maximum altitude 21:21:42 89° 73° (ENE) 769 3.5 -14.2°
Drops below altitude 10° 21:26:48 10° 347° (NNW) 2,311 7.1 -14.8°
Sets 21:29:07 0° 347° (NNW) 3,244 8.1 -15.0°
